User: anonymous   Login
Location: Bernadets
(43.3537°N, 0.3167°E)
Time: 22:16:18
(UTC+00:00)
Language:

Cosmos 44 - Orbit

View from above orbital plane
View from above orbital plane
View from above satellite
View from above satellite

Ground track
Ground track

The orbit data is extracted from the following two-line orbital elements,

1   876U 64053A   22020.21616802 -.00000040  00000-0  16689-4 0  9990
2   876  65.0611  32.1157 0137787 180.5973 179.4987 14.63839289 53542
Epoch (UTC): 20 January 2022 05:11:16
Eccentricity: 0.0137787
inclination: 65.0611°
perigee height: 583 km
apogee height: 778 km
right ascension of ascending node: 32.1157°
argument of perigee: 180.5973°
revolutions per day: 14.63839289
mean anomaly at epoch: 179.4987°
orbit number at epoch: 5354

The dashed part of the orbit path shows where the satellite is in the earth's shadow,  

DLR